, AK

(GMT )
Denali Park

Weather History for PAIN - April, 2014

Change the Weather History Date:

Tuesday, April 15, 2014

  Actual Average Record
Temperature  
Mean Temperature 30 °F -  
Max Temperature 42 °F 38 °F 52 °F (1965)
Min Temperature 17 °F 15 °F -15 °F (1979)
Degree Days  
Heating Degree Days 36    
Moisture  
Dew Point 23 °F    
Average Humidity 74    
Maximum Humidity 100    
Minimum Humidity 48    
Precipitation  
Precipitation 0.00 in - - ()
Sea Level Pressure  
Sea Level Pressure 29.76 in    
Wind  
Wind Speed 1 mph (SSW)    
Max Wind Speed 9 mph    
Max Gust Speed -    
Visibility 10 miles    
Events      
Averages and records for this station are not official NWS values.
T = Trace of Precipitation, MM = Missing Value Source: NWS Daily Summary

Daily Weather History Graph

Daily Weather History Graph

Search for Another Location

Airport or City:

Trip Planner

Search our weather history database for the weather conditions in past years. The results will help you decide how hot, cold, wet, or windy it might be!

Date:

Astronomy

Apr. 15, 2014 Rise Set
Actual Time 6:24 AM AKDT 9:28 PM AKDT
Civil Twilight 5:30 AM AKDT 10:23 PM AKDT
Nautical Twilight 4:12 AM AKDT 11:43 PM AKDT
Astronomical Twilight 2:28 AM AKDT 1:23 AM AKDT
Moon 10:39 PM AKDT (4/15) 6:33 AM AKDT (4/15)
Length of Visible Light 16h 52m
Length of Day
15h 03m
Full, 100% of the Moon is Illuminated
Apr 15
Full
Apr 21
Last Quarter
Apr 28
New
May 6
First Quarter
May 14
Full

Hourly Weather History & Observations

Time (AKDT) Temp. Windchill Dew Point Humidity Pressure Visibility Wind Dir Wind Speed Gust Speed Precip Events Conditions
12:16 AM 26.6 °F - 21.2 °F 80% 29.83 in 10.0 mi Calm Calm - N/A   Clear
12:36 AM 26.6 °F - 21.2 °F 80% 29.83 in 10.0 mi Calm Calm - N/A   Clear
12:56 AM 24.8 °F - 21.2 °F 86% 29.83 in 10.0 mi Calm Calm - N/A   Clear
1:16 AM 26.6 °F - 21.2 °F 80% 29.83 in 10.0 mi Calm Calm - N/A   Clear
1:36 AM 24.8 °F - 19.4 °F 80% 29.83 in 10.0 mi Calm Calm - N/A   Clear
1:56 AM 24.8 °F - 21.2 °F 86% 29.83 in 10.0 mi Calm Calm - N/A   Clear
2:16 AM 23.0 °F - 19.4 °F 86% 29.83 in 10.0 mi Calm Calm - N/A   Clear
2:36 AM 21.2 °F - 19.4 °F 93% 29.83 in 10.0 mi Calm Calm - N/A   Clear
2:56 AM 23.0 °F - 19.4 °F 86% 29.83 in 10.0 mi Calm Calm - N/A   Clear
3:16 AM 21.2 °F - 19.4 °F 93% 29.83 in 10.0 mi Calm Calm - N/A   Clear
3:36 AM 21.2 °F - 19.4 °F 93% 29.83 in 10.0 mi Calm Calm - N/A   Clear
3:56 AM 19.4 °F - 17.6 °F 93% 29.83 in 10.0 mi Calm Calm - N/A   Clear
4:16 AM 21.2 °F - 17.6 °F 86% 29.82 in 10.0 mi Calm Calm - N/A   Clear
4:36 AM 19.4 °F - 17.6 °F 93% 29.82 in 10.0 mi Calm Calm - N/A   Clear
4:56 AM 19.4 °F - 17.6 °F 93% 29.82 in 10.0 mi Calm Calm - N/A   Clear
5:16 AM 19.4 °F - 17.6 °F 93% 29.81 in 10.0 mi Calm Calm - N/A   Clear
5:36 AM 17.6 °F - 17.6 °F 100% 29.81 in 10.0 mi Calm Calm - N/A   Clear
5:56 AM 19.4 °F - 17.6 °F 93% 29.81 in 10.0 mi Calm Calm - N/A   Clear
6:16 AM 17.6 °F - 17.6 °F 100% 29.81 in 10.0 mi Calm Calm - N/A   Clear
6:36 AM 17.6 °F - 15.8 °F 93% 29.81 in 10.0 mi Calm Calm - N/A   Clear
6:56 AM 17.6 °F - 15.8 °F 93% 29.80 in 10.0 mi Calm Calm - N/A   Clear
7:16 AM 17.6 °F - 15.8 °F 93% 29.80 in 10.0 mi Calm Calm - N/A   Clear
7:36 AM 17.6 °F - 15.8 °F 93% 29.80 in 10.0 mi Calm Calm - N/A   Clear
7:56 AM 19.4 °F - 17.6 °F 93% 29.80 in 10.0 mi Calm Calm - N/A   Clear
8:16 AM 19.4 °F - 17.6 °F 93% 29.80 in 10.0 mi Calm Calm - N/A   Clear
8:56 AM 21.2 °F - 17.6 °F 86% 29.78 in 10.0 mi Calm Calm - N/A   Clear
9:16 AM 23.0 °F - 19.4 °F 86% 29.78 in 10.0 mi Calm Calm - N/A   Clear
9:56 AM 26.6 °F - 21.2 °F 80% 29.77 in 10.0 mi Calm Calm - N/A   Clear
10:16 AM 28.4 °F - 21.2 °F 74% 29.77 in 10.0 mi Calm Calm - N/A   Clear
10:36 AM 28.4 °F - 21.2 °F 74% 29.76 in 10.0 mi Calm Calm - N/A   Clear
10:56 AM 32.0 °F - 21.2 °F 64% 29.76 in 10.0 mi Calm Calm - N/A   Clear
11:16 AM 33.8 °F - 19.4 °F 56% 29.75 in 10.0 mi Calm Calm - N/A   Clear
11:36 AM 35.6 °F - 19.4 °F 52% 29.75 in 10.0 mi Calm Calm - N/A   Clear
11:56 AM 35.6 °F - 21.2 °F 56% 29.74 in 10.0 mi Calm Calm - N/A   Clear
12:16 PM 37.4 °F - 19.4 °F 48% 29.74 in 10.0 mi Calm Calm - N/A   Clear
12:36 PM 37.4 °F - 21.2 °F 52% 29.74 in 10.0 mi Calm Calm - N/A   Clear
12:56 PM 37.4 °F - 21.2 °F 52% 29.74 in 10.0 mi Calm Calm - N/A   Mostly Cloudy
1:16 PM 39.2 °F - 21.2 °F 49% 29.73 in 10.0 mi Calm Calm - N/A   Overcast
1:36 PM 39.2 °F - 21.2 °F 49% 29.73 in 10.0 mi Calm Calm - N/A   Overcast
1:56 PM 39.2 °F - 24.8 °F 56% 29.73 in 10.0 mi Calm Calm - N/A   Overcast
2:16 PM 41.0 °F - 26.6 °F 57% 29.72 in 10.0 mi Calm Calm - N/A   Mostly Cloudy
2:36 PM 42.8 °F 41.1 °F 28.4 °F 57% 29.72 in 10.0 mi WSW 3.5 mph - N/A   Scattered Clouds
2:56 PM 42.8 °F 37.5 °F 28.4 °F 57% 29.72 in 10.0 mi SSW 9.2 mph - N/A   Partly Cloudy
3:16 PM 42.8 °F 40.1 °F 28.4 °F 57% 29.72 in 10.0 mi SSW 4.6 mph - N/A   Mostly Cloudy
3:36 PM 42.8 °F 38.6 °F 30.2 °F 61% 29.72 in 10.0 mi SSW 6.9 mph - N/A   Overcast
3:56 PM 41.0 °F 37.1 °F 30.2 °F 65% 29.72 in 10.0 mi West 5.8 mph - N/A   Overcast
4:16 PM 42.8 °F - 30.2 °F 61% 29.71 in 10.0 mi Calm Calm - N/A   Overcast
4:36 PM 42.8 °F - 30.2 °F 61% 29.71 in 10.0 mi Calm Calm - N/A   Overcast
4:56 PM 42.8 °F 39.3 °F 28.4 °F 57% 29.71 in 10.0 mi SSW 5.8 mph - N/A   Overcast
5:16 PM 42.8 °F 38.6 °F 28.4 °F 57% 29.71 in 10.0 mi South 6.9 mph - N/A   Overcast
5:36 PM 42.8 °F 37.5 °F 28.4 °F 57% 29.71 in 10.0 mi SSW 9.2 mph - N/A   Overcast
5:56 PM 42.8 °F 40.1 °F 28.4 °F 57% 29.71 in 10.0 mi SSW 4.6 mph - N/A   Overcast
6:16 PM 42.8 °F 38.0 °F 28.4 °F 57% 29.71 in 10.0 mi SSW 8.1 mph - N/A   Overcast
6:36 PM 42.8 °F 40.1 °F 28.4 °F 57% 29.71 in 10.0 mi South 4.6 mph - N/A   Scattered Clouds
6:56 PM 42.8 °F 40.1 °F 28.4 °F 57% 29.71 in 10.0 mi South 4.6 mph - N/A   Scattered Clouds
7:16 PM 42.8 °F 39.3 °F 28.4 °F 57% 29.71 in 10.0 mi South 5.8 mph - N/A   Partly Cloudy
7:36 PM 41.0 °F 36.4 °F 28.4 °F 61% 29.72 in 10.0 mi SSW 6.9 mph - N/A   Scattered Clouds
7:56 PM 39.2 °F 37.0 °F 28.4 °F 65% 29.72 in 10.0 mi South 3.5 mph - N/A   Overcast
8:36 PM 37.4 °F - 30.2 °F 75% 29.73 in 10.0 mi Calm Calm - N/A   Overcast
8:56 PM 37.4 °F - 30.2 °F 75% 29.73 in 10.0 mi Calm Calm - N/A   Overcast
9:16 PM 37.4 °F 33.8 °F 30.2 °F 75% 29.73 in 10.0 mi South 4.6 mph - N/A   Overcast
9:36 PM 37.4 °F 34.9 °F 30.2 °F 75% 29.73 in 10.0 mi SW 3.5 mph - N/A   Overcast
9:56 PM 37.4 °F - 30.2 °F 75% 29.73 in 10.0 mi Calm Calm - N/A   Overcast
10:16 PM 37.4 °F 34.9 °F 30.2 °F 75% 29.74 in 10.0 mi SSW 3.5 mph - N/A   Mostly Cloudy
10:36 PM 35.6 °F 32.8 °F 30.2 °F 81% 29.73 in 10.0 mi South 3.5 mph - N/A   Partly Cloudy
10:56 PM 35.6 °F 31.7 °F 30.2 °F 81% 29.74 in 10.0 mi South 4.6 mph - N/A   Partly Cloudy
11:16 PM 35.6 °F 32.8 °F 30.2 °F 81% 29.74 in 10.0 mi South 3.5 mph - N/A   Clear
11:36 PM 35.6 °F 31.7 °F 30.2 °F 81% 29.74 in 10.0 mi South 4.6 mph - N/A   Scattered Clouds
11:56 PM 35.6 °F 32.8 °F 28.4 °F 75% 29.74 in 10.0 mi South 3.5 mph - N/A   Overcast